This is the latest recevied weather packets stored in our database for station/object OE-11051. If no packets are shown the sender has not sent any weather packets the latest 10 day(s).
| Time | Temp. | Humidity | Pressure | Rain* | Wind** | Luminosity | Snow |
|---|---|---|---|---|---|---|---|
| 1787963707 | 15.56° C | 88% | 1017.3 hPa | 0 mm | - | 0 W/m² | - |
| 1787963106 | 16.11° C | 86% | 1017.1 hPa | 0 mm | - | 0 W/m² | - |
| 1787962279 | 16.11° C | 87% | 1017.9 hPa | 0 mm | - | 0 W/m² | - |
| 1787961906 | 16.11° C | 87% | 1018.3 hPa | 0 mm | - | 0 W/m² | - |
| 1787961307 | 16.11° C | 87% | 1018.8 hPa | 0 mm | - | 0 W/m² | - |
| 1787960480 | 16.11° C | 88% | 1018.8 hPa | 0 mm | - | 0 W/m² | - |
| 1787960107 | 16.11° C | 88% | 1018.4 hPa | 0 mm | - | 0 W/m² | - |
| 1787959506 | 16.11° C | 89% | 1018.7 hPa | 0 mm | - | 0 W/m² | - |
| 1787958907 | 16.11° C | 89% | 1018.7 hPa | 0 mm | - | 0 W/m² | - |
| 1787958307 | 16.67° C | 91% | 1018.7 hPa | 0.25 mm | - | 0 W/m² | - |
| 1787957707 | 16.67° C | 91% | 1018.8 hPa | 0.51 mm | - | 0 W/m² | - |
| 1787956880 | 16.67° C | 92% | 1018.8 hPa | 3.3 mm | - | 0 W/m² | - |
| 1787956507 | 16.67° C | 94% | 1018.9 hPa | 4.57 mm | - | 0 W/m² | - |
| 1787955907 | 16.67° C | 96% | 1018.4 hPa | 5.08 mm | - | 0 W/m² | - |
| 1787955080 | 16.67° C | 95% | 1018.6 hPa | 5.33 mm | - | 0 W/m² | - |
| 1787954706 | 17.22° C | 95% | 1018.2 hPa | 5.33 mm | - | 0 W/m² | - |
| 1787954107 | 17.22° C | 95% | 1018.2 hPa | 5.08 mm | - | 0 W/m² | - |
| 1787953280 | 17.22° C | 95% | 1018 hPa | 5.33 mm | - | 0 W/m² | - |
| 1787952907 | 17.78° C | 93% | 1017.9 hPa | 2.29 mm | - | 0 W/m² | - |
| 1787952307 | 18.33° C | 91% | 1017.4 hPa | 1.27 mm | - | 0 W/m² | - |
| 1787951480 | 18.33° C | 90% | 1016.7 hPa | 0.76 mm | - | 0 W/m² | - |
| 1787951107 | 18.89° C | 92% | 1016.2 hPa | 0.51 mm | - | 0 W/m² | - |
| 1787950507 | 18.89° C | 94% | 1015.9 hPa | 0.51 mm | - | 0 W/m² | - |
| 1787949680 | 18.89° C | 94% | 1015.9 hPa | 0.51 mm | - | 0 W/m² | - |
| 1787949307 | 18.89° C | 94% | 1015.6 hPa | 0 mm | - | 0 W/m² | - |
* Rain latest hour (hover to see other rain measurements)
** Current wind speed in m/s (hover to see current wind gust speed)